Orlando International Airport Orlando US
ICAO: KMCO
IATA: MCO
Category: Large
Scheduled Services: Yes

Elevation: 96 ft
TransAlt. 18000 ft.

Airport Communications:
APP/DEP:119.4
ATIS:121.25
CLNC DEL:134.7
GND:121.8
AR OPS:41.5
ST PETERSBURG RDO:122.1
ST PETERSBURG RDO:122.2
TWR:118.45
UNICOM:122.95

KMCO Zoom In..

If you have problems with the map follow the link
https://www.worldairports.se/pages/airport.php?
ICAO=KMCO

Runways:

(A) RW 17L length 9001 ft width 150 ft
ILS 110.95 / hdg 185

(B) RW 17R length 10000 ft width 150 ft
ILS 111.75 / hdg 185

(C) RW 18L length 12005 ft width 200 ft
---- / hdg 185

(D) RW 18R length 12005 ft width 200 ft
ILS 111.90 / hdg 185

(E) RW 35L length 10000 ft width 150 ft
ILS 110.50 / hdg 5

(F) RW 35R length 9001 ft width 150 ft
ILS 111.15 / hdg 5

(G) RW 36L length 12005 ft width 200 ft
---- / hdg 5

(H) RW 36R length 12005 ft width 200 ft
ILS 110.70 / hdg 5

Location; KMCO
Day. 20 / Time. 20.53 Zulu
* Altimeter: 30.04
* Temperature: 29° c. 84.2°f.
* Wind from: 150° Speed 13 kn.
Dewpoint: 19° c.
Visibility: 10 Statute Miles.
Clouds: Scattered 4900 ft.
Clouds: Scattered 7500 ft.

KMCO 202053Z 15013KT 10SM SCT049 SCT075 29/19 A3004 RMK AO2 SLP171 T02890189 56015


Wind From 150°
Speed 13 kn.

 
 
jpsmedia.com for Web Design worldairports.se 2019   terms of use